TimeCST,TemperatureF,Dew PointF,Humidity,Sea Level PressureIn,VisibilityMPH,Wind Direction,Wind SpeedMPH,Gust SpeedMPH,PrecipitationIn,Events,Conditions,WindDirDegrees,DateUTC
12:55 AM,14.0,10.0,84,30.00,8.0,SW,6.9,-,N/A,,Overcast,220,2013-01-02 06:55:00
1:32 AM,14.0,10.4,86,29.90,8.0,SSW,6.9,-,N/A,,Overcast,210,2013-01-02 07:32:00
1:55 AM,14.0,10.9,88,29.99,8.0,SSW,8.1,-,N/A,,Overcast,200,2013-01-02 07:55:00
2:55 AM,15.1,12.0,88,29.98,7.0,South,6.9,-,N/A,,Overcast,190,2013-01-02 08:55:00
3:55 AM,16.0,12.9,88,29.98,5.0,SSW,5.8,-,N/A,,Overcast,210,2013-01-02 09:55:00
4:42 AM,15.8,14.0,93,29.89,2.5,South,5.8,-,N/A,,Overcast,190,2013-01-02 10:42:00
4:55 AM,16.0,14.0,92,29.98,2.5,SSW,8.1,-,N/A,,Overcast,200,2013-01-02 10:55:00
5:55 AM,17.1,14.0,88,29.97,2.0,South,8.1,-,N/A,,Overcast,180,2013-01-02 11:55:00
6:05 AM,17.6,15.8,93,29.88,1.5,South,6.9,-,N/A,,Overcast,180,2013-01-02 12:05:00
6:55 AM,17.1,14.0,88,29.97,1.5,South,5.8,-,0.00,Snow,Light Snow,170,2013-01-02 12:55:00
7:15 AM,17.6,14.0,86,29.88,1.8,SSE,4.6,-,0.00,Snow,Light Snow,160,2013-01-02 13:15:00
7:28 AM,17.6,14.0,86,29.87,2.0,South,6.9,-,0.00,Snow,Light Snow,170,2013-01-02 13:28:00
7:51 AM,17.6,14.0,86,29.88,1.5,SSE,6.9,-,0.00,Snow,Light Snow,160,2013-01-02 13:51:00
7:55 AM,18.0,14.0,84,29.97,1.5,South,5.8,-,0.00,Snow,Light Snow,180,2013-01-02 13:55:00
8:55 AM,18.0,15.1,88,29.97,1.8,South,5.8,-,0.00,,Overcast,170,2013-01-02 14:55:00
9:23 AM,17.6,15.8,93,29.89,2.0,South,10.4,-,N/A,,Overcast,190,2013-01-02 15:23:00
9:40 AM,17.6,15.8,93,29.89,1.8,South,11.5,-,N/A,,Overcast,190,2013-01-02 15:40:00
9:55 AM,18.0,15.1,88,29.99,1.5,South,10.4,-,N/A,,Overcast,190,2013-01-02 15:55:00
10:07 AM,19.4,15.8,86,29.90,1.5,South,11.5,-,N/A,,Overcast,190,2013-01-02 16:07:00
10:21 AM,19.4,15.8,86,29.89,2.0,South,11.5,-,N/A,,Overcast,190,2013-01-02 16:21:00
10:55 AM,19.0,15.1,85,29.99,3.0,South,10.4,-,N/A,,Overcast,190,2013-01-02 16:55:00
11:14 AM,19.4,15.8,86,29.89,4.0,South,10.4,-,N/A,,Overcast,190,2013-01-02 17:14:00
11:55 AM,19.0,16.0,88,29.98,5.0,SSW,6.9,-,0.00,Snow,Light Snow,200,2013-01-02 17:55:00
12:55 PM,19.0,15.1,85,29.96,5.0,SSW,8.1,-,0.00,Snow,Light Snow,200,2013-01-02 18:55:00
1:55 PM,19.0,15.1,85,29.96,5.0,SSW,5.8,-,0.00,Snow,Light Snow,200,2013-01-02 19:55:00
2:53 PM,19.4,15.8,86,29.89,2.0,SSW,4.6,-,0.00,Snow,Light Snow,210,2013-01-02 20:53:00
2:55 PM,19.0,15.1,85,29.97,2.0,SW,4.6,-,0.00,Snow,Light Snow,220,2013-01-02 20:55:00
3:55 PM,19.0,15.1,85,29.99,2.0,SSW,4.6,-,0.00,Snow,Light Snow,200,2013-01-02 21:55:00
4:55 PM,19.0,15.1,85,30.00,2.5,SSW,6.9,-,0.00,Snow,Light Snow,200,2013-01-02 22:55:00
6:55 PM,18.0,15.1,88,30.03,4.0,SW,4.6,-,0.00,,Overcast,230,2013-01-03 00:55:00
7:55 PM,18.0,15.1,88,30.03,4.0,West,5.8,-,0.00,Snow,Light Snow,270,2013-01-03 01:55:00
8:55 PM,18.0,15.1,88,30.04,4.0,WSW,5.8,-,0.00,Snow,Light Snow,250,2013-01-03 02:55:00
9:55 PM,19.0,16.0,88,30.04,2.0,West,6.9,-,0.00,Snow,Light Snow,270,2013-01-03 03:55:00
10:28 PM,19.4,15.8,86,29.95,3.0,West,6.9,-,0.00,Snow,Light Snow,270,2013-01-03 04:28:00
10:55 PM,19.0,16.0,88,30.05,4.0,West,6.9,-,0.00,Snow,Light Snow,270,2013-01-03 04:55:00
11:03 PM,19.4,15.8,86,29.97,4.0,West,6.9,-,0.00,Snow,Light Snow,280,2013-01-03 05:03:00
11:20 PM,19.4,15.8,86,29.96,4.0,West,8.1,-,0.00,Snow,Light Snow,280,2013-01-03 05:20:00
11:55 PM,19.9,17.1,89,30.05,5.0,WNW,9.2,-,0.00,Snow,Light Snow,290,2013-01-03 05:55:00